Regional Weather Roundup
Issued by NWS Green Bay, WI

Home | Current Version | Previous Version | Graphics & Text | Print | Product List | Glossary Off
Versions: 1 2 3 4 5 6 7 8 9 10 11 12 13 14 15 16 17 18 19 20 21 22 23 24 25 26 27 28 29 30 31 32 33 34 35 36 37 38 39 40 41 42 43 44 45 46 47 48 49 50

987
ASUS43 KGRB 172100
RWRGRB

NORTH-CENTRAL AND NORTHEAST WISCONSIN REGIONAL WEATHER ROUNDUP
NATIONAL WEATHER SERVICE GREEN BAY WI
300 PM CST TUE JAN 17 2017

WIZ005-009-010>012-018-019-172200-
NORTH CENTRAL WISCONSIN

CITY           SKY/WX    TMP DP  RH WIND       PRES   REMARKS
IRONWOOD       SUNNY     37  26  64 CALM      29.90R
MANITOWISH WTR NOT AVBL
ARBOR VITAE    NOT AVBL
EAGLE RIVER    NOT AVBL
LAND O LAKES   NOT AVBL
RHINELANDER    CLOUDY    41  32  70 VRB7      29.86R
PHILLIPS       SUNNY     42  33  70 NW6       29.86S
ANTIGO         NOT AVBL
TOMAHAWK       NOT AVBL
MERRILL        CLOUDY    37  35  90 CALM        N/A
$$

WIZ013-073-172200-
NORTHEAST WISCONSIN

CITY           SKY/WX    TMP DP  RH WIND       PRES   REMARKS
IRON MOUNTAIN  CLOUDY    37  31  78 N5        29.85R
MARINETTE      NOT AVBL
$$

WIZ017-030-035>037-045-172200-
CENTRAL WISCONSIN

CITY           SKY/WX    TMP DP  RH WIND       PRES   REMARKS
MEDFORD        NOT AVBL
WAUSAU         CLOUDY    35  33  92 NW3       29.86R
MOSINEE        NOT AVBL
MARSHFIELD     CLOUDY    36  33  89 N5        29.86S FOG
WISC RAPIDS    CLOUDY    35  35 100 N6        29.88R FOG
STEVENS POINT  NOT AVBL
WAUPACA        NOT AVBL
SHAWANO        NOT AVBL
CLINTONVILLE   FOG       34  32  93 N7        29.87R VSB 1/4
WAUTOMA        LGT RAIN  35  34  96 MISG      29.87R
$$

WIZ038-039-048-051-172200-
FOX VALLEY

CITY           SKY/WX    TMP DP  RH WIND       PRES   REMARKS
NWS GREEN BAY  FOG       36  35  96 NW5       29.86R VSB 1
APPLETON         N/A     34  34 100 NW7       29.84R FOG
OSHKOSH        MIX PCPN  34  33  96 NW7       29.85R VSB 3/4
FOND DU LAC    CLOUDY    34  32  92 NW8       29.85R FOG
$$

WIZ022-050-052-172200-
EAST CENTRAL WISCONSIN

CITY           SKY/WX    TMP DP  RH WIND       PRES   REMARKS
EPHRAIM        NOT AVBL
WASHINGTON ISL NOT AVBL
STURGEON BAY   FOG       34  33  96 N8        29.85R VSB 1/2
MANITOWOC      NOT AVBL
SHEBOYGAN      CLOUDY    34  33  96 NW9       29.84R FOG
$$

LMZ563-521-522-541>543-172200-
LAKESHORE

STATION/POSITION TIME  TEMP    WIND        PRES    VSBY  WAVE
                       AIR SEA DIR/SP/G                  HT/PER
                 (UTC) (F)     (DEG/KT/KT) (MB)    (MI)  (FT/S)
SHEBOYGAN LKSHOR 2000   35     290/  8/  9 1010.1R
KEWAUNEE LKSHORE 2030   35     320/  5/  6 1009.7R
NORTHPORT PIER   2040   34      40/ 10/ 12 1010.8R
SISTER BAY LKSHO 2020   35      30/  7/ 10   N/A
MENOMINEE LKSHOR 2030           10/ 15/ 17 1010.2R
$$




USA.gov is the U.S. government's official web portal to all federal, state and local government web resources and services.